Weather History for New Iberia, LA

Change the Weather History Date:

Friday, October 4, 2013

  Actual Average Record
Temperature  
Mean Temperature 83 °F 74 °F  
Max Temperature 90 °F 84 °F 93 °F (2004)
Min Temperature 76 °F 63 °F 43 °F (1961)
Degree Days  
Heating Degree Days 0 0  
Month to date heating degree days 0 0  
Since 1 July heating degree days 0 1  
Cooling Degree Days 18 9  
Month to date cooling degree days 70 37  
Year to date cooling degree days 2948 2593  
Growing Degree Days 32 (Base 50)    
Moisture  
Dew Point 74 °F    
Average Humidity 79    
Maximum Humidity 94    
Minimum Humidity 63    
Precipitation  
Precipitation 0.14 in 0.21 in 8.20 in (1964)
Month to date precipitation 0.35 0.84  
Year to date precipitation 57.44 46.32  
Sea Level Pressure  
Sea Level Pressure 29.97 in    
Wind  
Wind Speed 7 mph (ESE)    
Max Wind Speed 23 mph    
Max Gust Speed 31 mph    
Visibility 9 miles    
Events Rain    
T = Trace of Precipitation, MM = Missing Value Source: NWS Daily Summary

Daily Weather History Graph

Daily Weather History Graph

Search for Another Location

Airport:

Trip Planner

Search our weather history database for the weather conditions in past years. The results will help you decide how hot, cold, wet, or windy it might be!

Date:

Astronomy

Oct. 04, 2013 Rise Set
Actual Time 7:02 AM CDT 6:49 PM CDT
Civil Twilight 6:38 AM CDT 7:12 PM CDT
Nautical Twilight 6:11 AM CDT 7:40 PM CDT
Astronomical Twilight 5:43 AM CDT 8:08 PM CDT
Moon 6:38 AM CDT (10/4) 6:34 PM CDT (10/4)
Length of Visible Light 12h 34m
Length of Day
11h 46m
Waning Crescent, 0% of the Moon is Illuminated
Oct 4
Waning Crescent
Oct 4
New
Oct 11
First Quarter
Oct 18
Full
Oct 26
Last Quarter

Hourly Weather History & Observations

Time (CDT) Temp. Heat Index Dew Point Humidity Pressure Visibility Wind Dir Wind Speed Gust Speed Precip Events Conditions
12:53 AM 78.1 °F - 73.0 °F 84% 29.96 in 10.0 mi ESE 3.5 mph - N/A   Partly Cloudy
1:17 AM 78.8 °F - 73.4 °F 83% 29.96 in 10.0 mi ESE 6.9 mph - N/A   Mostly Cloudy
1:32 AM 78.8 °F - 73.4 °F 83% 29.96 in 10.0 mi ESE 5.8 mph - N/A   Mostly Cloudy
1:39 AM 78.8 °F - 73.4 °F 83% 29.96 in 10.0 mi ESE 5.8 mph - N/A   Mostly Cloudy
1:49 AM 78.8 °F - 73.4 °F 83% 29.96 in 10.0 mi ESE 5.8 mph - N/A   Scattered Clouds
1:53 AM 78.1 °F - 73.9 °F 87% 29.96 in 10.0 mi ESE 4.6 mph - N/A   Scattered Clouds
2:05 AM 78.8 °F - 73.4 °F 83% 29.95 in 10.0 mi ESE 4.6 mph - N/A   Mostly Cloudy
2:15 AM 78.8 °F - 73.4 °F 83% 29.95 in 10.0 mi ESE 4.6 mph - N/A   Scattered Clouds
2:53 AM 78.1 °F - 73.9 °F 87% 29.94 in 10.0 mi East 4.6 mph - N/A   Clear
3:53 AM 77.0 °F - 73.0 °F 88% 29.93 in 10.0 mi Calm Calm - N/A   Clear
4:53 AM 75.9 °F - 73.0 °F 91% 29.93 in 10.0 mi Calm Calm - N/A   Clear
5:53 AM 77.0 °F - 73.0 °F 88% 29.94 in 10.0 mi ESE 4.6 mph - N/A   Partly Cloudy
6:53 AM 77.0 °F - 73.0 °F 88% 29.96 in 10.0 mi ESE 4.6 mph - N/A   Partly Cloudy
7:53 AM 78.1 °F - 73.9 °F 87% 29.98 in 10.0 mi ESE 5.8 mph - N/A   Clear
8:53 AM 82.0 °F 88.6 °F 75.0 °F 79% 29.99 in 10.0 mi ESE 11.5 mph - N/A   Clear
9:53 AM 84.9 °F 94.1 °F 75.9 °F 74% 30.01 in 10.0 mi ESE 11.5 mph - N/A   Mostly Cloudy
10:53 AM 86.0 °F 96.0 °F 75.9 °F 72% 30.01 in 10.0 mi ESE 8.1 mph - N/A   Mostly Cloudy
11:35 AM 86.0 °F 95.1 °F 75.2 °F 70% 30.00 in 10.0 mi East 8.1 mph - N/A   Mostly Cloudy
11:53 AM 88.0 °F 100.2 °F 77.0 °F 70% 30.00 in 10.0 mi ESE 8.1 mph - N/A   Scattered Clouds
12:53 PM 87.1 °F 95.4 °F 73.9 °F 65% 29.99 in 10.0 mi ESE 18.4 mph 24.2 mph N/A   Mostly Cloudy
1:29 PM 82.4 °F 89.5 °F 75.2 °F 79% 29.99 in 2.5 mi South 8.1 mph - 0.08 in Rain Heavy Rain
1:33 PM 82.4 °F 89.5 °F 75.2 °F 79% 29.99 in 1.8 mi South 11.5 mph - 0.10 in Rain Heavy Rain
1:38 PM 80.6 °F 85.4 °F 73.4 °F 79% 29.98 in 3.0 mi South 10.4 mph - 0.11 in Rain Rain
1:53 PM 81.0 °F 86.7 °F 75.0 °F 82% 29.99 in 10.0 mi SE 13.8 mph - 0.11 in Rain Light Rain
2:05 PM 80.6 °F 86.2 °F 75.2 °F 84% 29.98 in 3.0 mi SE 6.9 mph - 0.03 in Rain Heavy Rain
2:53 PM 84.9 °F 92.1 °F 73.9 °F 69% 29.97 in 10.0 mi SSE 12.7 mph - 0.03 in   Mostly Cloudy
3:53 PM 87.1 °F 94.5 °F 73.0 °F 63% 29.96 in 10.0 mi SE 12.7 mph 20.7 mph N/A   Partly Cloudy
4:53 PM 81.0 °F 86.2 °F 73.9 °F 79% 29.97 in 10.0 mi SE 8.1 mph - 0.00 in   Overcast
5:53 PM 82.0 °F 87.4 °F 73.0 °F 74% 29.96 in 10.0 mi ESE 6.9 mph - N/A   Overcast
6:53 PM 80.1 °F 84.2 °F 73.0 °F 79% 29.96 in 10.0 mi East 5.8 mph - N/A   Clear
7:53 PM 80.1 °F 84.5 °F 73.9 °F 81% 29.98 in 10.0 mi ESE 6.9 mph - N/A   Scattered Clouds
8:53 PM 79.0 °F - 73.9 °F 84% 29.99 in 10.0 mi East 4.6 mph - N/A   Partly Cloudy
9:53 PM 78.1 °F - 73.0 °F 84% 29.99 in 10.0 mi ESE 3.5 mph - N/A   Mostly Cloudy
10:53 PM 78.1 °F - 73.0 °F 84% 29.98 in 10.0 mi ESE 6.9 mph - N/A   Clear
11:53 PM 78.1 °F - 73.0 °F 84% 29.97 in 10.0 mi East 3.5 mph - N/A   Clear